Wind_Speed
17 17 16 15 15 15 14 13 13 13 12 12 11 11 11 11 11 10 10 10 9 8 8 7 7 7 6 6 5 5 5 5 5 5 5 5 5 4 4 4 5 5 5
19 19 18 17 17 16 16 15 14 14 14 13 13 13 13 12 12 11 11 11 10 9 9 8 7 7 7 7 7 6 6 6 6 6 6 6 6 6 5 5 5 6 7
21 21 20 20 19 18 17 16 16 15 15 14 14 14 13 13 13 12 12 12 11 10 10 10 9 8 8 8 8 8 8 7 7 7 7 8 8 7 6 6 7 7 8
23 22 22 21 21 20 19 18 17 17 16 16 16 15 14 14 14 13 13 13 12 11 11 11 11 10 10 10 10 9 9 8 8 8 8 8 8 9 9 9 9 9 10
26 25 24 23 22 21 20 20 19 18 18 18 17 16 16 15 15 14 14 13 13 13 12 12 12 12 11 11 12 11 11 11 10 9 10 10 10 10 10 11 11 11 12
28 26 25 24 23 22 22 21 20 20 20 19 19 19 18 17 17 16 15 15 14 14 13 13 13 13 13 12 13 13 13 13 12 12 12 11 11 12 12 13 13 13 14
29 28 27 26 25 24 23 22 21 21 21 21 21 21 20 19 19 18 18 17 16 16 16 15 15 15 14 14 14 14 14 14 14 13 13 14 14 14 15 15 15 15 16
32 30 28 27 26 25 25 24 23 22 22 22 21 21 21 21 21 20 20 20 19 18 18 18 17 17 16 16 16 16 16 15 15 16 16 16 16 16 16 17 17 18 18
33 31 30 30 29 28 26 26 25 24 24 23 22 22 22 22 21 21 21 21 21 21 21 20 20 19 19 19 18 18 18 17 17 18 18 18 18 18 19 19 19 19 20
34 32 31 31 30 29 28 27 26 26 25 24 24 24 24 24 23 23 23 23 23 22 22 22 22 22 22 22 21 20 20 19 20 20 20 20 20 20 21 21 21 21 22
33 33 32 32 31 31 30 29 29 28 27 26 26 25 25 25 25 25 25 25 25 24 24 24 24 24 24 24 24 23 23 23 23 23 23 24 23 23 23 23 23 23 23
35 34 33 33 33 33 32 31 31 31 29 28 28 27 27 27 27 27 27 27 27 26 26 26 26 26 26 26 26 26 26 26 25 25 25 26 26 25 25 25 25 25 25
35 35 35 35 35 35 34 34 33 32 31 31 30 30 30 29 29 28 28 29 29 28 28 28 28 28 28 29 28 28 28 28 27 27 27 27 28 28 28 28 28 28 28
35 36 36 36 36 36 35 35 35 34 34 33 33 32 32 31 31 31 30 30 31 30 29 29 29 29 29 30 30 30 30 30 30 29 29 29 30 30 30 30 30 30 30
36 37 38 37 37 37 36 36 36 35 35 35 35 34 34 33 33 33 33 33 32 32 31 31 31 31 31 31 31 31 31 32 32 32 31 31 31 31 32 31 32 32 32
38 38 39 38 38 38 38 38 38 37 37 36 36 36 36 36 35 35 35 34 35 35 34 34 34 33 33 34 33 33 33 33 33 33 33 33 33 33 34 34 34 34 35
38 38 39 39 38 39 39 40 40 40 39 38 38 38 38 38 38 37 37 37 37 37 36 36 36 36 36 36 36 35 34 34 34 35 35 35 36 37 37 36 36 37 36
39 39 40 40 40 40 40 41 41 42 41 41 40 40 40 40 40 40 39 39 39 38 38 38 38 37 38 38 38 38 37 37 37 37 37 37 38 38 39 38 38 38 38
39 40 40 41 42 42 41 41 42 43 43 43 43 42 42 42 42 42 41 41 40 40 40 40 40 40 40 40 40 39 39 39 39 39 38 38 39 39 39 39 40 40 39
38 39 39 40 41 42 42 42 43 44 44 44 44 44 44 44 44 44 43 43 42 42 42 42 42 42 42 42 41 41 41 40 41 41 41 40 40 40 40 39 40 41 41
37 38 39 40 41 41 43 43 43 43 43 44 44 44 45 45 45 45 44 44 45 44 45 44 44 44 44 44 44 44 44 43 43 43 42 42 41 41 42 41 40 41 42
37 38 39 40 40 41 43 44 44 43 44 45 45 45 46 46 45 45 45 44 45 45 45 45 44 44 45 45 45 46 46 45 45 44 44 43 43 43 43 43 42 42 43
36 37 38 40 41 41 43 43 43 44 44 45 45 45 46 45 45 46 46 46 46 47 46 46 46 46 46 46 46 46 46 45 44 44 44 44 44 43 44 45 45 45 44
36 36 37 38 39 40 40 41 41 41 42 44 45 46 46 45 45 46 47 47 47 47 47 47 47 47 47 46 46 46 46 46 46 45 44 44 44 45 46 47 47 47 47
35 35 37 37 37 38 38 39 40 41 42 42 44 46 46 45 44 45 46 46 47 47 47 48 48 47 46 46 46 46 46 47 47 47 45 45 46 46 46 47 48 49 49
34 35 38 38 38 39 39 39 40 42 43 44 44 45 46 45 46 46 45 45 46 47 46 45 46 46 46 46 46 46 47 47 47 47 47 46 47 47 48 49 49 49 49
Wind_Direction
245 245 246 247 249 250 249 248 248 247 247 246 243 240 241 241 241 241 242 243 243 245 248 249 251 251 256 259 262 260 257 255 258 264 267 266 266 271 276 281 290 297 304
246 245 246 246 248 249 248 247 246 245 246 246 246 244 243 243 242 242 243 244 245 245 245 246 249 252 255 256 257 257 257 258 258 260 262 263 267 269 271 280 290 297 303
247 245 245 246 247 248 248 247 246 246 247 248 248 247 245 245 246 244 243 243 244 244 244 247 249 252 254 256 256 257 258 259 260 260 262 265 267 267 270 278 287 295 299
248 247 245 246 247 246 246 246 247 247 248 248 248 247 246 245 247 245 243 245 246 246 248 250 251 253 255 257 258 259 260 262 260 260 262 264 263 266 268 276 282 289 294
247 246 245 246 245 245 245 246 247 248 248 249 248 248 247 247 247 247 246 247 247 247 249 252 254 255 258 261 262 262 261 264 262 261 261 262 264 266 269 274 280 286 290
246 245 244 245 245 245 246 247 248 249 249 248 247 247 247 246 247 249 249 248 248 249 250 254 256 257 259 262 264 265 265 264 263 263 265 267 269 268 270 274 278 283 287
246 245 243 243 245 245 246 247 248 248 248 249 248 247 247 247 247 249 250 250 251 252 253 256 257 259 261 263 265 266 267 264 263 265 266 269 270 272 272 275 278 282 286
245 246 243 243 243 245 247 249 248 249 248 248 247 247 249 249 248 249 252 252 252 254 255 257 258 259 262 264 266 267 267 267 265 264 266 269 270 272 274 275 278 281 284
245 245 243 243 243 245 247 248 249 250 250 249 249 249 249 250 250 251 252 253 255 255 256 257 258 259 261 264 266 267 267 267 268 267 268 269 272 273 274 276 278 280 283
244 243 243 243 244 245 246 247 247 247 248 249 250 250 250 251 252 253 254 254 255 256 256 257 258 259 261 263 265 267 267 268 269 270 269 270 272 274 274 275 276 279 281
243 244 244 243 245 246 246 247 248 248 249 249 249 250 251 252 253 255 257 257 257 257 258 259 259 260 261 263 265 266 267 270 272 271 270 271 273 275 275 276 278 279 280
243 244 244 244 245 246 246 247 248 249 250 250 249 251 252 253 255 257 258 259 258 258 259 260 261 262 262 263 265 266 267 270 271 272 272 273 274 276 276 277 278 280 281
243 244 244 244 245 246 246 246 248 249 250 250 249 251 252 253 256 258 258 259 259 260 261 262 262 263 263 263 265 266 268 269 270 270 272 273 274 275 276 277 278 280 281
245 244 243 243 244 245 246 246 247 248 249 250 249 250 251 252 255 257 258 259 261 261 262 262 263 263 264 265 266 267 268 269 269 270 271 272 273 274 275 277 278 279 281
246 244 243 243 245 245 246 247 248 248 249 250 250 251 252 254 256 258 258 259 260 261 261 263 264 264 265 266 267 268 268 269 269 269 271 273 273 274 275 277 278 279 281
247 246 244 243 245 246 247 248 249 248 249 250 251 252 253 255 256 258 258 259 262 263 262 262 263 264 265 265 266 268 269 270 271 270 271 272 273 274 275 276 278 281 281
247 246 245 245 246 248 249 249 249 249 250 252 253 252 253 255 256 258 259 259 261 261 261 263 264 264 265 265 266 267 268 270 271 272 273 273 274 276 276 277 279 281 281
248 248 248 247 248 249 250 250 250 250 250 251 253 253 253 255 256 258 259 259 260 260 261 263 264 265 265 265 266 266 267 269 271 273 274 275 276 277 277 277 278 279 279
248 248 248 249 250 250 251 251 251 250 250 252 253 253 253 254 255 258 260 260 261 261 262 263 265 266 266 266 266 267 268 269 271 273 274 275 276 277 277 278 278 278 278
250 249 250 251 252 251 251 252 252 252 252 252 252 253 254 255 256 258 260 260 261 262 262 263 265 265 266 266 266 267 269 271 272 273 274 276 277 276 276 277 278 278 279
252 250 251 252 252 252 252 252 252 251 252 252 253 254 254 255 257 258 260 261 261 262 263 264 265 265 266 267 267 267 268 270 272 273 274 275 276 276 276 276 278 279 279
253 251 252 253 253 253 253 253 252 252 252 253 253 254 254 255 257 258 259 260 261 262 263 263 265 265 266 267 268 268 269 270 271 272 273 274 275 276 276 277 278 279 280
255 253 252 252 253 254 253 254 252 252 253 253 253 253 254 256 257 258 259 260 261 261 262 263 265 265 266 267 268 270 270 270 270 271 272 273 274 275 276 277 278 278 280
257 256 254 253 253 253 253 253 252 252 252 252 253 253 254 254 256 257 259 259 260 261 262 264 265 266 266 267 268 270 271 272 273 273 272 273 273 274 275 276 277 278 279
258 257 255 254 253 254 254 253 253 252 254 255 255 255 254 254 255 257 258 258 259 261 263 265 265 266 266 267 268 270 271 272 273 274 273 272 273 274 275 276 277 278 279
259 259 258 254 254 255 254 255 255 254 254 256 258 257 255 255 256 256 259 259 260 261 263 264 264 266 266 268 268 270 271 272 273 274 274 274 274 274 275 276 276 277 278
Height
5829 5829 5830 5831 5832 5833 5834 5835 5836 5837 5837 5838 5839 5839 5840 5841 5841 5842 5842 5843 5843 5844 5845 5845 5846 5846 5846 5847 5847 5847 5847 5848 5848 5848 5848 5848 5849 5849 5849 5849 5849 5849 5849
5825 5826 5827 5828 5829 5831 5832 5833 5834 5835 5835 5836 5837 5837 5838 5839 5839 5840 5841 5841 5842 5843 5843 5844 5845 5845 5845 5846 5846 5846 5846 5846 5847 5847 5847 5847 5848 5848 5848 5848 5848 5848 5848
5821 5823 5824 5825 5826 5827 5829 5830 5831 5832 5833 5833 5834 5835 5836 5837 5837 5838 5839 5840 5840 5841 5842 5843 5843 5844 5844 5844 5844 5844 5845 5845 5845 5846 5846 5846 5846 5847 5847 5847 5847 5847 5847
5817 5819 5820 5822 5823 5824 5825 5827 5828 5829 5830 5831 5832 5833 5833 5834 5835 5836 5837 5838 5838 5839 5840 5841 5842 5842 5842 5843 5843 5843 5843 5843 5844 5844 5845 5845 5845 5845 5845 5845 5845 5845 5845
5812 5814 5816 5818 5819 5820 5822 5823 5825 5826 5827 5828 5829 5830 5831 5832 5833 5834 5835 5836 5837 5837 5838 5839 5839 5840 5840 5840 5841 5841 5841 5842 5842 5843 5843 5843 5843 5843 5843 5843 5843 5843 5843
5807 5809 5812 5814 5815 5817 5818 5820 5821 5822 5823 5824 5825 5826 5828 5829 5830 5831 5832 5833 5834 5835 5836 5836 5837 5837 5838 5838 5838 5838 5839 5839 5840 5840 5841 5841 5841 5841 5841 5841 5841 5841 5840
5802 5804 5807 5809 5811 5812 5814 5816 5817 5818 5819 5821 5822 5823 5824 5825 5826 5828 5829 5830 5831 5832 5833 5834 5834 5835 5835 5835 5835 5836 5836 5837 5837 5838 5838 5838 5838 5838 5838 5838 5838 5838 5837
5795 5799 5801 5804 5806 5808 5809 5811 5812 5814 5815 5816 5818 5819 5820 5822 5823 5824 5825 5827 5828 5829 5830 5831 5831 5832 5832 5832 5832 5833 5833 5834 5834 5835 5835 5835 5834 5835 5835 5835 5835 5834 5834
5789 5793 5796 5798 5801 5803 5804 5806 5807 5809 5810 5812 5813 5815 5816 5818 5819 5820 5822 5823 5824 5825 5826 5827 5828 5828 5829 5829 5829 5829 5830 5830 5831 5831 5832 5832 5832 5831 5831 5831 5831 5831 5830
5783 5787 5790 5793 5795 5798 5799 5801 5802 5804 5806 5807 5809 5810 5812 5813 5815 5816 5817 5819 5820 5821 5822 5823 5823 5824 5825 5825 5825 5826 5826 5827 5827 5827 5828 5828 5828 5827 5827 5827 5827 5826 5826
5778 5780 5784 5786 5789 5791 5794 5795 5797 5799 5800 5802 5804 5805 5807 5808 5810 5811 5813 5814 5815 5816 5817 5818 5819 5819 5820 5821 5821 5822 5822 5822 5823 5823 5823 5823 5823 5823 5823 5823 5822 5822 5821
5771 5774 5777 5780 5782 5785 5787 5789 5791 5793 5795 5796 5798 5800 5802 5803 5805 5806 5807 5809 5810 5811 5812 5813 5814 5814 5815 5815 5816 5817 5817 5818 5818 5818 5818 5818 5818 5818 5818 5818 5817 5817 5816
5763 5767 5769 5773 5775 5778 5780 5782 5784 5786 5788 5790 5792 5794 5796 5797 5799 5800 5802 5803 5804 5805 5806 5807 5808 5808 5809 5810 5810 5811 5812 5812 5812 5813 5813 5813 5813 5813 5812 5812 5812 5811 5811
5756 5759 5762 5765 5767 5770 5772 5775 5777 5779 5781 5783 5785 5787 5789 5791 5793 5794 5795 5796 5797 5798 5800 5801 5801 5802 5803 5804 5804 5805 5806 5806 5806 5807 5806 5806 5806 5806 5806 5806 5805 5805 5804
5748 5751 5754 5757 5759 5762 5764 5767 5769 5771 5773 5775 5777 5779 5782 5784 5785 5787 5788 5789 5790 5792 5793 5794 5795 5796 5797 5797 5798 5798 5799 5799 5800 5800 5800 5800 5800 5799 5799 5799 5798 5798 5797
5740 5743 5746 5749 5751 5754 5756 5758 5761 5763 5765 5767 5769 5771 5774 5776 5777 5779 5780 5782 5783 5784 5786 5787 5788 5788 5789 5790 5791 5791 5792 5792 5792 5792 5793 5792 5792 5792 5792 5791 5790 5790 5789
5731 5734 5737 5740 5742 5745 5747 5749 5752 5754 5756 5759 5761 5763 5765 5767 5769 5770 5772 5774 5775 5776 5777 5778 5779 5780 5781 5782 5783 5784 5784 5784 5785 5784 5785 5784 5784 5784 5783 5783 5782 5781 5780
5723 5725 5728 5731 5734 5736 5738 5740 5743 5745 5747 5750 5752 5754 5756 5757 5759 5761 5763 5765 5766 5767 5768 5770 5771 5772 5772 5773 5774 5775 5776 5776 5776 5776 5776 5776 5775 5775 5774 5774 5773 5772 5771
5713 5716 5719 5722 5724 5726 5728 5731 5733 5735 5738 5740 5742 5744 5746 5748 5750 5752 5753 5755 5756 5758 5759 5761 5762 5762 5763 5764 5765 5766 5767 5767 5768 5767 5767 5767 5766 5766 5765 5765 5764 5763 5762
5704 5707 5709 5711 5714 5716 5718 5721 5723 5725 5727 5729 5732 5734 5736 5738 5740 5742 5743 5745 5747 5748 5750 5751 5752 5753 5753 5754 5755 5756 5757 5758 5758 5758 5758 5757 5757 5756 5756 5755 5754 5754 5753
5694 5697 5700 5702 5704 5706 5708 5710 5713 5715 5717 5719 5721 5724 5726 5728 5730 5732 5733 5735 5737 5738 5739 5740 5741 5743 5743 5744 5746 5747 5747 5748 5748 5748 5748 5747 5747 5746 5746 5745 5744 5743 5742
5685 5687 5689 5691 5693 5695 5697 5699 5702 5704 5706 5708 5711 5713 5715 5717 5719 5721 5723 5724 5726 5727 5728 5730 5731 5732 5733 5734 5735 5735 5737 5739 5738 5738 5737 5737 5736 5736 5735 5734 5734 5733 5731
5675 5677 5679 5681 5683 5685 5686 5688 5691 5693 5695 5697 5700 5702 5704 5706 5708 5710 5712 5713 5715 5716 5717 5719 5720 5721 5722 5723 5723 5724 5725 5726 5727 5727 5726 5726 5725 5725 5724 5724 5723 5722 5720
5666 5668 5669 5671 5673 5674 5675 5678 5680 5682 5685 5687 5689 5691 5693 5695 5698 5699 5700 5702 5703 5705 5706 5707 5708 5709 5710 5711 5712 5712 5713 5713 5713 5715 5716 5715 5714 5713 5713 5712 5711 5710 5709
5658 5659 5660 5662 5663 5665 5665 5668 5670 5672 5674 5676 5678 5681 5683 5685 5686 5688 5689 5690 5692 5693 5695 5695 5696 5697 5699 5700 5701 5701 5701 5701 5701 5701 5703 5703 5702 5701 5700 5699 5699 5697 5696
5650 5650 5651 5653 5654 5655 5657 5658 5660 5662 5664 5666 5668 5670 5672 5674 5675 5677 5678 5679 5680 5682 5683 5684 5685 5686 5687 5688 5689 5689 5689 5690 5690 5689 5689 5690 5689 5689 5688 5687 5686 5685 5683